Regional Weather Roundup
Issued by NWS

Home | Current Version | Previous Version | Text Only | Print | Product List | Glossary On
Versions: 1 2 3 4 5 6 7 8 9 10 11 12 13 14 15 16 17 18 19 20 21 22 23 24 25 26 27 28 29 30 31 32 33 34 35 36 37 38 39 40 41 42 43 44 45 46 47 48 49 50
000
ASUS46 KSEW 191710
RWRWA

WASHINGTON REGIONAL WEATHER ROUNDUP
NATIONAL WEATHER SERVICE SEATTLE WA
900 AM PST FRI DEC 19 2014

NOTE:"FAIR" INDICATES FEW OR NO CLOUDS BELOW 12,000 FEET WITH NO
SIGNIFICANT WEATHER AND/OR OBSTRUCTIONS TO VISIBILITY.

WAZ505-507>509-191800-
SEATTLE, TACOMA, EVERETT, AND VICINITY

CITY           SKY/WX    TMP DP  RH WIND       PRES   REMARKS
EVERETT        LGT RAIN  45  42  89 S15G22    29.87R
BOEING FIELD   CLOUDY    50  41  71 S8        29.91R
RENTON         CLOUDY    47  43  86 CALM      29.91R
SEATAC AIRPORT CLOUDY    47  41  80 S9        29.91R
JBLM-MCCHORD   CLOUDY    44  44  99 S7        29.91R
PUYALLUP       NOT AVBL
JBLM-FT LEWIS  CLOUDY    46  43  90 S8        29.91R
TACOMA NARROWS CLOUDY    47  41  80 S13       29.90R
$$

WAZ001-503-506-510-514-515-191800-
NORTH INTERIOR

CITY           SKY/WX    TMP DP  RH WIND       PRES   REMARKS
BELLINGHAM     CLOUDY    47  42  83 S7        29.85R
FRIDAY HARBOR  PTCLDY    41  40  96 CALM      29.86R
EASTSOUND      MOCLDY    43  43 100 CALM      29.83R
PORT ANGELES   CLEAR     39  38  96 MISG      29.84R
NAS WHIDBEY    CLOUDY    48  41  76 SE13      29.86R
BURLINGTON     CLOUDY    46  43  87 SE8       29.88R
$$

WAZ020-022-039-040-504-511-512-191800-
SOUTHWEST INTERIOR

CITY           SKY/WX    TMP DP  RH WIND       PRES   REMARKS
SHELTON        LGT RAIN  45  44  97 CALM      29.88R
OLYMPIA        MOCLDY    45  42  89 S8        29.92R
CHEHALIS       PTSUNNY   46  45  93 S7        29.93R
KELSO          CLOUDY    46  41  81 S9        29.99R
VANCOUVER      MOCLDY    45  41  86 SE6       29.98R
SCAPPOOSE, OR  MOCLDY    46  43  89 SE5       29.98R
PORTLAND, OR   MOCLDY    45  43  93 E12       29.99R
$$

WAZ021-516-517-191800-
WASHINGTON COAST

CITY           SKY/WX    TMP DP  RH WIND       PRES   REMARKS
FORKS          LGT RAIN  45  44  97 SE8G18    29.82S FOG
HOQUIAM        PTCLDY    45  43  93 E9        29.88R
ASTORIA, OR    PTCLDY    46  43  89 S6        29.91R
$$

WAZ019-023-024-040-518-519-191800-
CASCADE MOUNTAINS AND COLUMBIA GORGE

CITY           SKY/WX    TMP DP  RH WIND       PRES   REMARKS
STAMPEDE PASS  NOT AVBL
TROUTDALE, OR  CLOUDY    46  42  86 SE5       29.99R
THE DALLES, OR LGT RAIN  39  38  96 SW5       30.00R FOG
$$

WAZ026-027-041>044-520-521-191800-
EAST SLOPES

CITY           SKY/WX    TMP DP  RH WIND       PRES   REMARKS
OMAK           CLOUDY    34  33  96 CALM      29.86R FOG
WENATCHEE      MOCLDY    34  32  92 W5        29.87S FOG
ELLENSBURG     FOG       35  33  92 CALM      29.87R VSB<1/4
YAKIMA         CLOUDY    40  37  89 NW3       29.92R FOG
$$

WAZ028-034-035-191800-
COLUMBIA BASIN

CITY           SKY/WX    TMP DP  RH WIND       PRES   REMARKS
EPHRATA        CLOUDY    38  37  97 S7        29.88R FOG
MOSES LAKE     CLOUDY    37  37 100 S3        29.89R FOG
PASCO          CLOUDY    41  40  96 NE5       29.94R
HERMISTON, OR  CLOUDY    40  38  93 SE3       29.95R FOG
$$

WAZ036>038-191800-
NORTHEAST WASHINGTON

CITY           SKY/WX    TMP DP  RH WIND       PRES   REMARKS
SPOKANE GEIGER CLOUDY    41  40  96 S10       29.86R
SPOKANE FELTS  CLOUDY    43  40  89 VRB3      29.88S
FAIRCHILD AFB  MIX PCPN  41  41 100 S10       29.86R
COEURDALENE,ID CLOUDY    39  37  93 SE8       29.87S
DEER PARK      CLOUDY    38  38 100 S3        29.87S
$$

WAZ029>033-191800-
SOUTHEAST WASHINGTON

CITY           SKY/WX    TMP DP  RH WIND       PRES   REMARKS
PULLMAN        LGT RAIN  42  38  85 S10       29.92R
LEWISTON, ID   RAIN      43  40  89 E9        29.93R
WALLA WALLA    RAIN      45  43  93 S6        29.95R FOG
PENDLETON, OR  LGT RAIN  39  38  96 E6        29.94R FOG
$$


USA.gov is the U.S. government's official web portal to all federal, state and local government web resources and services.